Simultaneous Nadir Overpasses (SNOs) Predictions

Prediction of SNOs between GOES-16 and NOAA-20 Satellite Orbit:

Table of predicted SNOs for the next 14.0 days since TLE Epoch: 11/16/2019
Index Date Time (GOES-16) GOES-16 Lat,Lon NOAA-20 Lat,Lon Distance(km) Time Diff (sec)
1 11/16/2019 06:10:34 0.02, -75.20 -0.73, -71.92 373.37 80
2 11/17/2019 18:32:30 -0.00, -75.20 -0.46, -77.23 230.60 80
3 11/18/2019 18:16:26 0.01, -75.21 0.56, -72.70 285.86 80
4 11/20/2019 06:38:14 -0.01, -75.20 0.59, -77.97 314.77 80
5 11/21/2019 06:16:50 -0.02, -75.21 -0.43, -73.44 202.10 80
6 11/22/2019 18:41:26 0.01, -75.23 -0.75, -78.74 400.42 80
7 11/23/2019 18:20:01 0.01, -75.24 0.27, -74.21 117.12 80
8 11/25/2019 06:44:29 -0.00, -75.25 0.94, -79.48 481.78 80
9 11/26/2019 06:23:04 0.00, -75.26 -0.08, -74.95 35.91 80
10 11/28/2019 18:28:56 -0.01, -75.30 -0.07, -75.72 47.91 80
11 11/29/2019 18:07:32 0.00, -75.31 0.95, -71.19 470.27 80




NCC Satellite Simultaneous Nadir Overpasses (SNOs) Prediction Service
